RYR3BV LEMH-EIDW

Flight info

Callsign RYR3BV
Flight time N/A
Altitude 34000
Route MEROS DCT LAPIT DCT CHELY DCT LUMAS DCT SOSUR DCT JUSQO DCT DIVKO DCT FJR DCT GAI DCT SECHE/N0448F360 DCT UVELI DCT CNA DCT MANAK DCT TIRAV DCT MOKOR DCT BAGAD DCT DOLUR DCT UPCAB DCT IJALA DCT EVRIN DCT SUTEX SUTEX3R
Aircraft B738/M-SDE2E3FGHIRWXY/LB1

Departure

Time 2026-04-28 15:38
Airport Menorca Airport (LEMH)

Arrival

Time N/A
Airport Dublin Airport (EIDW)
Time Latitude Longitude Altitude Speed Heading
2026-04-28 15:00 39.86423 4.22392 294 ft 0 kts 98°
2026-04-28 15:25 39.86423 4.22389 294 ft 2 kts 98°
2026-04-28 15:25 39.86428 4.22356 299 ft 4 kts 108°
2026-04-28 15:25 39.86439 4.22326 299 ft 4 kts 138°
2026-04-28 15:25 39.86456 4.22315 299 ft 1 kts 188°
2026-04-28 15:31 39.86455 4.22315 299 ft 1 kts 188°
2026-04-28 15:31 39.86436 4.22311 299 ft 4 kts 188°
2026-04-28 15:31 39.86399 4.22304 294 ft 7 kts 188°
2026-04-28 15:31 39.86348 4.22293 294 ft 8 kts 189°
2026-04-28 15:32 39.86291 4.22281 296 ft 8 kts 188°
2026-04-28 15:32 39.86235 4.22269 294 ft 8 kts 189°
2026-04-28 15:32 39.86190 4.22236 295 ft 8 kts 241°
2026-04-28 15:32 39.86188 4.22168 294 ft 7 kts 277°
2026-04-28 15:33 39.86180 4.22105 294 ft 7 kts 234°
2026-04-28 15:33 39.86137 4.22079 296 ft 7 kts 192°
2026-04-28 15:33 39.86082 4.22067 294 ft 10 kts 189°
2026-04-28 15:33 39.85997 4.22051 294 ft 15 kts 187°
2026-04-28 15:34 39.85877 4.22025 295 ft 19 kts 189°
2026-04-28 15:34 39.85746 4.21999 299 ft 19 kts 189°
2026-04-28 15:34 39.85617 4.21972 293 ft 19 kts 189°
2026-04-28 15:34 39.85480 4.21943 290 ft 20 kts 189°
2026-04-28 15:35 39.85343 4.21916 286 ft 21 kts 189°
2026-04-28 15:35 39.85091 4.21859 281 ft 11 kts 205°
2026-04-28 15:35 39.85068 4.21792 281 ft 8 kts 285°
2026-04-28 15:36 39.85077 4.21754 285 ft 0 kts 296°
2026-04-28 15:36 39.85079 4.21749 284 ft 2 kts 298°
2026-04-28 15:36 39.85102 4.21709 282 ft 8 kts 309°
2026-04-28 15:37 39.85141 4.21658 284 ft 8 kts 328°
2026-04-28 15:37 39.85234 4.21656 291 ft 30 kts
2026-04-28 15:37 39.85682 4.21748 296 ft 98 kts
2026-04-28 15:37 39.86565 4.21925 301 ft 156 kts
2026-04-28 15:38 39.87740 4.22207 692 ft 176 kts 13°
2026-04-28 15:38 39.88945 4.22489 1496 ft 178 kts 13°
2026-04-28 15:38 39.90123 4.22767 2328 ft 178 kts 14°
2026-04-28 15:38 39.91426 4.23036 2775 ft 204 kts 13°
2026-04-28 15:39 39.92873 4.23325 2952 ft 228 kts 12°
2026-04-28 15:39 39.94487 4.23643 3237 ft 242 kts 10°
2026-04-28 15:39 39.96172 4.23989 3595 ft 258 kts 11°
2026-04-28 15:39 39.98028 4.24374 4011 ft 274 kts 11°
2026-04-28 15:40 39.99886 4.24758 4901 ft 274 kts 10°
2026-04-28 15:40 40.01783 4.25161 5666 ft 277 kts 11°
2026-04-28 15:40 40.03682 4.25602 5961 ft 277 kts 12°
2026-04-28 15:40 40.05593 4.26059 6251 ft 280 kts 11°
2026-04-28 15:41 40.07502 4.26518 6519 ft 278 kts 11°
2026-04-28 15:41 40.09411 4.26976 6777 ft 280 kts 11°
2026-04-28 15:41 40.11341 4.27438 7057 ft 285 kts 11°
2026-04-28 15:41 40.13274 4.27900 7326 ft 283 kts 10°
2026-04-28 15:42 40.15216 4.28364 7605 ft 284 kts 10°
2026-04-28 15:42 40.17170 4.28830 7884 ft 291 kts 10°
2026-04-28 15:42 40.19143 4.29301 8147 ft 285 kts 10°
2026-04-28 15:42 40.21130 4.29774 8553 ft 296 kts 10°
2026-04-28 15:43 40.23156 4.30259 9364 ft 296 kts
2026-04-28 15:43 40.25195 4.30747 10099 ft 298 kts
2026-04-28 15:43 40.27282 4.31245 10472 ft 316 kts
2026-04-28 15:43 40.29521 4.31779 10644 ft 338 kts
2026-04-28 15:44 40.31897 4.32346 10920 ft 355 kts
2026-04-28 15:44 40.34352 4.32935 11509 ft 360 kts
2026-04-28 15:44 40.36826 4.33530 12188 ft 363 kts
2026-04-28 15:44 40.39315 4.34128 12855 ft 367 kts
2026-04-28 15:45 40.41844 4.34736 13492 ft 372 kts
2026-04-28 15:45 40.44405 4.35352 14077 ft 376 kts
2026-04-28 15:45 40.46993 4.35974 14669 ft 380 kts
2026-04-28 15:45 40.49603 4.36602 15265 ft 383 kts
2026-04-28 15:46 40.52237 4.37232 15843 ft 387 kts
2026-04-28 15:46 40.54899 4.37862 16415 ft 391 kts
2026-04-28 15:46 40.57588 4.38498 16976 ft 395 kts
2026-04-28 15:46 40.60302 4.39139 17536 ft 398 kts
2026-04-28 15:47 40.63046 4.39789 18098 ft 402 kts
2026-04-28 15:47 40.65813 4.40446 18593 ft 406 kts
2026-04-28 15:47 40.68599 4.41108 19107 ft 408 kts
2026-04-28 15:47 40.71402 4.41776 19616 ft 411 kts
2026-04-28 15:48 40.74223 4.42448 20113 ft 413 kts
2026-04-28 15:48 40.77064 4.43126 20600 ft 416 kts
2026-04-28 15:48 40.79924 4.43809 21077 ft 419 kts
2026-04-28 15:48 40.82798 4.44495 21555 ft 422 kts
2026-04-28 15:49 40.85691 4.45187 22025 ft 424 kts
2026-04-28 15:49 40.88607 4.45885 22483 ft 427 kts
2026-04-28 15:49 40.91541 4.46591 22937 ft 430 kts
2026-04-28 15:49 40.94487 4.47309 23382 ft 432 kts
2026-04-28 15:50 40.97453 4.48036 23778 ft 435 kts
2026-04-28 15:50 41.00436 4.48768 24154 ft 437 kts
2026-04-28 15:50 41.03432 4.49502 24535 ft 439 kts
2026-04-28 15:50 41.06403 4.50230 24907 ft 441 kts
2026-04-28 15:51 41.09424 4.50969 25264 ft 443 kts
2026-04-28 15:51 41.12464 4.51711 25613 ft 445 kts
2026-04-28 15:51 41.15497 4.52451 25959 ft 447 kts
2026-04-28 15:51 41.18566 4.53200 26305 ft 449 kts
2026-04-28 15:52 41.21614 4.53944 26639 ft 451 kts
2026-04-28 15:52 41.24705 4.54701 26961 ft 453 kts
2026-04-28 15:52 41.27816 4.55463 27281 ft 455 kts
2026-04-28 15:52 41.30934 4.56228 27597 ft 457 kts
2026-04-28 15:53 41.34078 4.57000 27913 ft 459 kts
2026-04-28 15:53 41.37219 4.57773 28226 ft 461 kts
2026-04-28 15:53 41.40368 4.58548 28559 ft 462 kts
2026-04-28 15:53 41.43534 4.59328 28851 ft 464 kts
2026-04-28 15:54 41.46718 4.60113 29126 ft 466 kts
2026-04-28 15:54 41.49910 4.60900 29393 ft 469 kts
2026-04-28 15:54 41.53127 4.61695 29664 ft 470 kts
2026-04-28 15:54 41.56342 4.62491 30038 ft 470 kts
2026-04-28 15:55 41.59547 4.63285 30431 ft 467 kts
2026-04-28 15:55 41.62744 4.64078 30782 ft 466 kts
2026-04-28 15:55 41.65929 4.64868 31063 ft 466 kts
2026-04-28 15:55 41.69115 4.65659 31344 ft 466 kts
2026-04-28 15:56 41.72309 4.66453 31628 ft 466 kts
2026-04-28 15:56 41.75475 4.67392 31932 ft 466 kts 13°
2026-04-28 15:56 41.78591 4.68564 32248 ft 465 kts 15°
2026-04-28 15:56 41.81688 4.69826 32555 ft 465 kts 15°
2026-04-28 15:57 41.84781 4.71112 32818 ft 465 kts 16°
2026-04-28 15:57 41.87868 4.72389 33106 ft 464 kts 15°
2026-04-28 15:57 41.90954 4.73647 33395 ft 464 kts 15°
2026-04-28 15:57 41.94002 4.74874 33646 ft 463 kts 15°
2026-04-28 15:58 41.97094 4.76107 33913 ft 463 kts 15°
2026-04-28 15:58 42.00187 4.77335 34011 ft 466 kts 15°
2026-04-28 15:58 42.06420 4.79807 34003 ft 468 kts 15°
2026-04-28 15:59 42.11625 4.81879 34002 ft 462 kts 14°
2026-04-28 15:59 42.18760 4.84726 34015 ft 461 kts 14°
2026-04-28 16:00 42.24925 4.87192 34010 ft 461 kts 14°
2026-04-28 16:00 42.31081 4.89659 34025 ft 462 kts 14°
2026-04-28 16:01 42.37247 4.92135 34016 ft 463 kts 14°
2026-04-28 16:01 42.43372 4.94601 34016 ft 463 kts 14°
2026-04-28 16:02 42.49550 4.97092 34019 ft 463 kts 14°
2026-04-28 16:02 42.55831 4.98681 34021 ft 457 kts 356°
2026-04-28 16:03 42.62025 4.97237 34022 ft 450 kts 338°
2026-04-28 16:03 42.67942 4.94454 34018 ft 450 kts 338°
2026-04-28 16:04 42.73885 4.91785 34011 ft 451 kts 339°
2026-04-28 16:04 42.78855 4.89595 34014 ft 451 kts 339°
2026-04-28 16:05 42.85833 4.86507 34013 ft 451 kts 339°
2026-04-28 16:05 42.91804 4.83853 34017 ft 451 kts 339°
2026-04-28 16:06 42.97738 4.81211 34014 ft 451 kts 338°
2026-04-28 16:06 43.03616 4.78280 34002 ft 447 kts 328°
2026-04-28 16:07 43.08580 4.73364 34005 ft 438 kts 310°
2026-04-28 16:08 43.14644 4.64077 34025 ft 436 kts 308°
2026-04-28 16:08 43.18668 4.57856 34007 ft 436 kts 308°
2026-04-28 16:09 43.24725 4.48575 34003 ft 435 kts 308°